Flag for U.S.A. Weather past 2 weeks in Gainesville, Florida, U.S.A.

Now
82 °F

Partly sunny.


Feels Like: 88 °F
Forecast: 75 / 85 °F
Wind: 6 mph from South

Location: Gainesville Regional Airport

Current Time: Aug 4, 2015 at 1:58:16 PM

Latest Report: Aug 4, 2015 at 12:53 PM


Visibility: 10 mi

Pressure: 30.05 "Hg

Humidity: 77%

Dew point: 74 °F

Location of GainesvilleLocation

Historic Weather in Gainesville — Graph

°F

Gainesville temperature yesterday

Maximum temperature yesterday: 86 °F (at 4:53 PM)
Minimum temperature yesterday: 74 °F (at 8:58 PM)
Average temperature yesterday: 77 °F

Past Weeks' High & Low Weather Summary

 TemperatureHumidityPressure
High94 °F (Jul 22, 4:53 PM)100% (Jul 31, 5:53 AM)30.05 "Hg (Jul 31, 5:53 AM)
Low72 °F (Jul 25, 5:53 AM)49% (Jul 22, 4:53 PM)29.80 "Hg (Aug 3, 2:53 AM)
Average80 °F84%29.92 "Hg
* Reported Jul 20 1:02 PM — Aug 4 12:53 PM, Gainesville, Weather by CustomWeather, © 2015

Note: Actual official high and low records may vary slightly from our data, if they occured in-between our weather recording intervals... More about our weather records

Advertising

Gainesville weather history for previous 24 hours

 ConditionsComfort  
Time TempWeatherWind HumidityBarometerVisibility
12:53 PM
Tue, Aug 4
82 °FPartly sunny.6 mph77%30.05 "Hg10 mi
11:53 AM83 °FPassing clouds.10 mph77%30.04 "Hg10 mi
11:00 AM85 °FScattered clouds.N/A77%30.04 "Hg10 mi
10:04 AM83 °FBroken clouds.N/A85%30.04 "Hg10 mi
9:53 AM82 °FPartly sunny.N/A88%30.03 "Hg10 mi
8:53 AM79 °FPartly sunny.N/A94%30.01 "Hg9 mi
7:53 AM77 °FPassing clouds.N/A96%30.00 "Hg8 mi
6:53 AM76 °FPassing clouds.N/A97%29.98 "Hg7 mi
5:53 AM77 °FPassing clouds.N/A94%29.96 "Hg8 mi
4:53 AM76 °FOvercast.N/A97%29.95 "Hg9 mi
4:01 AM75 °FThunderstorms. Passing clouds.N/A96%29.95 "Hg9 mi
3:01 AM75 °FThunderstorms. Mostly cloudy.N/A96%29.94 "Hg10 mi
1:53 AM75 °FThunderstorms. Overcast.N/A94%29.95 "Hg10 mi
12:53 AM74 °FThunderstorms. Mostly cloudy.N/A97%29.97 "Hg10 mi
12:02 AM74 °FThunderstorms. Mostly cloudy.N/A97%29.98 "Hg10 mi
11:53 PM
Mon, Aug 3
74 °FThunderstorms. Mostly cloudy.N/A97%29.98 "Hg10 mi
10:53 PM74 °FThunderstorms. Passing clouds.N/A94%29.97 "Hg10 mi
9:53 PM74 °FThunderstorms. Passing clouds.N/A97%29.94 "Hg10 mi
9:04 PM74 °FStrong thunderstorms. Fog.N/A97%29.93 "Hg1 mi
8:58 PM74 °FStrong thunderstorms. Fog.N/A97%29.93 "Hg2 mi
7:53 PM75 °FStrong thunderstorms. Fog.N/A94%29.92 "Hg2 mi
7:04 PM77 °FThunderstorms. Fog.N/A90%29.88 "Hg1 mi
6:53 PM78 °FThunderstorms. Broken clouds.N/A87%29.88 "Hg10 mi
5:53 PM81 °FThunderstorms. Mostly cloudy.N/A82%29.86 "Hg10 mi
4:53 PM86 °FWarm.N/A75%29.87 "Hg10 mi
2:03 PM79 °FLight rain. Fog.N/A90%29.89 "Hg1 mi
1:53 PM79 °FRain. Fog.N/A90%29.88 "Hg3 mi
Weather by CustomWeather, © 2015

See weather overviewHow to use our weather pages